• Join FlightAware (Why Join?)
  • Login
  • US Flag 
12:26PM EDT


 

Airport Tracker/Info


-or-


 

Live Flight TrackerFlight Track Log ✈ UAL5914 ✈ 29-Apr-2013 ✈ KDEN - KGUC

Flight Track Log - Related Links

Times and Time Zones

All times are in EDT time to prevent confusion due to time zone crossing. See the UAL5914 flight status page for this flight to view local times or setup timezone preferences in your user account.

Time Position Orientation Groundspeed Altitude Reporting Facility
EDT Latitude Longitude Course Direction KTS MPH feet Rate Location/Type
09:39PM 39.8333 -104.7333 270° West 190 219 6,800  Level Denver TRACON
09:39PM 39.8336 -104.7831 270° West 195 224 8,100 1,920 Climbing Denver Center
09:40PM 39.8064 -104.8806 250° West 267 307 10,100 1,680 Climbing Denver Center
09:41PM 39.7767 -104.9919 251° West 329 379 11,600 1,980 Climbing Denver Center
09:42PM 39.7344 -105.1128 246° West 336 387 14,300 2,760 Climbing Denver Center
09:43PM 39.6969 -105.2183 245° Southwest 331 381 17,400 2,820 Climbing Denver Center
09:45PM 39.6597 -105.3231 245° Southwest 323 372 20,200 2,460 Climbing Denver Center
09:46PM 39.6183 -105.4383 245° Southwest 328 377 22,500 1,980 Climbing Denver Center
09:47PM 39.5772 -105.5489 244° Southwest 347 399 24,300 1,680 Climbing Denver Center
09:48PM 39.5369 -105.6689 247° West 358 412 26,000 1,680 Climbing Denver Center
09:49PM 39.5022 -105.7944 250° West 367 422 27,800 960 Climbing Denver Center
09:50PM 39.4617 -105.9472 251° West 388 447 28,000 60 Climbing Denver Center
09:51PM 39.4214 -106.0878 250° West 409 471 28,000 -360 Level Denver Center
09:52PM 39.3675 -106.2089 240° Southwest 423 487 27,300 -840 Descending Denver Center
09:53PM 39.2597 -106.3094 216° Southwest 426 490 26,300 -1,020 Descending Denver Center
09:54PM 39.1689 -106.3925 215° Southwest 421 484 25,300 -1,020 Descending Denver Center
09:55PM 39.0611 -106.4867 214° Southwest 418 481 24,200 -1,080 Descending Denver Center
09:56PM 38.9478 -106.5078 188° South 436 502 23,100 -1,800 Descending Denver Center
09:58PM 38.8247 -106.6349 219° Southwest  Level Estimated
09:58PM 38.7281 -106.4297 219° Southwest 410 472 18,700  Level Denver Center
09:59PM 38.6450 -106.5067 216° Southwest 324 373 17,000 -1,320 Descending Denver Center
10:00PM 38.6172 -106.5986 249° West 291 335 16,000 -1,500 Descending Denver Center
10:01PM 38.5922 -106.6908 251° West 276 318 14,000 -1,980 Descending Denver Center
10:03PM 38.5506 -106.8640 253° West  Level Estimated